Miscellaneous Local Product
Issued by NWS North Platte, NE

Home | Current Version | Previous Version | Graphics & Text | Print | Product List | Glossary On
Versions: 1 2 3 4 5 6 7 8 9 10 11 12 13 14 15 16 17 18 19 20 21 22 23 24 25 26 27 28 29 30 31 32 33 34 35 36 37 38 39 40 41 42 43 44 45 46 47 48 49 50
000
AXUS43 KLBF 310310
MISLBF


WESTERN AND NORTH CENTRAL NEBRASKA HOURLY WEATHER ROUNDUP
NATIONAL WEATHER SERVICE NORTH PLATTE NE
1000 PM CDT THU JUL 30 2015

***STATIONS NOT REPORTING VARIABLES SUCH AS SKY/WEATHER OR
PRESSURE ARE PROVIDED BY THE NEBRASKA DEPARTMENT OF
ROADS...RAWS...AND APRS NETWORKS...AND ARE NOT UNDER
NATIONAL WEATHER SERVICE QUALITY CONTROL***

...OBSERVATIONS IN AND NEAR THE EASTERN PANHANDLE OF NEBRASKA...

CITY           SKY/WX    TMP DP  RH WIND       PRES   REMARKS
PINE RIDGE     CLEAR     66  53  63 E7        30.21R
CHADRON        CLEAR     73  48  41 NE3       30.20R
ALLIANCE       CLEAR     68  51  54 NE9       30.24R
SIDNEY         CLEAR     67  60  78 S7        30.28R
BIG SPRINGS      N/A     72  63  72 SE3         N/A
$$

...OBSERVATIONS IN NORTH CENTRAL NEBRASKA...

CITY           SKY/WX    TMP DP  RH WIND       PRES   REMARKS
VALENTINE      CLEAR     76  51  41 E5        30.18R
THEDFORD       CLEAR     70  60  72 CALM      30.21R
AINSWORTH      CLEAR     73  55  53 E3        30.18R
O`NEILL        PTCLDY    76  68  77 NE6       30.14R
ORD            PTCLDY    73  66  78 S7        30.13R
BROKEN BOW     PTCLDY    73  67  81 CALM      30.18R
SPRINGVIEW       N/A     74  56  53 CALM        N/A
CHAMBERS         N/A     73  60  64 CALM        N/A
EWING            N/A     73  66  80 CALM        N/A
$$

...OBSERVATIONS IN SOUTHWEST NEBRASKA AND FAR NORTHEAST COLORADO...

CITY           SKY/WX    TMP DP  RH WIND       PRES   REMARKS
WRAY           FAIR      74  56  54 CALM      30.24R
IMPERIAL       MOCLDY    76  58  53 S8        30.21R
OGALLALA       RAIN      68  60  76 E10       30.25R
NORTH PLATTE   MOCLDY    76  62  62 S6        30.19R
MCCOOK         CLOUDY    78  62  57 SE6       30.19R
LEXINGTON      MOCLDY    75  67  76 S6        30.18R
PAXTON           N/A     73  65  77 NW3         N/A
BRADY            N/A     74  64  69 CALM        N/A
CALLAWAY         N/A     70  66  88 SE3         N/A
$$

...NORTH PLATTE AREA...

CITY           SKY/WX    TMP DP  RH WIND       PRES   REMARKS
AIRPORT        MOCLDY    76  62  62 S6        30.19R
DOWNTOWN         N/A     80  61  51 CALM        N/A
HILLCREST        N/A     76  61  59 SE3         N/A
$$

...SOME WEATHER OBSERVATIONS FROM AROUND THE REGION...

CITY           SKY/WX    TMP DP  RH WIND       PRES   REMARKS
DENVER         PTCLDY    76  50  40 E13       30.28R
LARAMIE        CLEAR     67  40  37 E15       30.43R
CHEYENNE       CLEAR     69  41  36 E6        30.37R
SCOTTSBLUFF    CLEAR     72  52  49 NE9       30.23R
RAPID CITY     CLEAR     66  56  70 CALM      30.19S
PIERRE         CLEAR     71  55  56 NE9       30.10R
WINNER         FAIR      77  56  48 SE7       30.14R
SIOUX FALLS    PTCLDY    71  62  73 SW3       30.10R
OMAHA          PTCLDY    76  67  73 SE3       30.12R
GRAND ISLAND   MOCLDY    76  67  73 S5        30.16R
KANSAS CITY    PTCLDY    76  60  57 CALM      30.15R
WICHITA        PTCLDY    77  69  76 SE6       30.16R
HAYS           CLEAR     75  63  64 SE7       30.19R
LIBERAL        CLOUDY    77  64  65 E8        30.21R
GOODLAND       CLOUDY    75  60  59 SW8       30.28R
$$



USA.gov is the U.S. government's official web portal to all federal, state and local government web resources and services.